This is the latest recevied weather packets stored in our database for station/object KN6WGU. If no packets are shown the sender has not sent any weather packets the latest 10 day(s).
| Time | Temp. | Humidity | Pressure | Rain* | Wind** | Luminosity | Snow |
|---|---|---|---|---|---|---|---|
| 1788618926 | 23.89° C | 94% | 1007 hPa | 0 mm | - | 104 W/m² | - |
| 1788618621 | 23.89° C | 96% | 1007.2 hPa | 0 mm | - | 85 W/m² | - |
| 1788618319 | 23.89° C | 98% | 1007.1 hPa | 0 mm | - | 68 W/m² | - |
| 1788618010 | 23.33° C | 98% | 1007.1 hPa | 0 mm | - | 109 W/m² | - |
| 1788617709 | 23.33° C | 99% | 1007.1 hPa | 0 mm | - | 69 W/m² | - |
| 1788617406 | 23.33° C | 99% | 1007 hPa | 0 mm | - | 64 W/m² | - |
| 1788617100 | 23.33° C | 99% | 1007 hPa | 0 mm | - | 78 W/m² | - |
| 1788616798 | 22.78° C | 99% | 1007.1 hPa | 0 mm | - | 61 W/m² | - |
| 1788616495 | 22.78° C | 99% | 1007.2 hPa | 0 mm | - | 62 W/m² | - |
| 1788616190 | 23.33° C | 99% | 1006.9 hPa | 0 mm | - | 71 W/m² | - |
| 1788615889 | 22.78° C | 99% | 1007.1 hPa | 0 mm | - | 86 W/m² | - |
| 1788615589 | 22.78° C | 99% | 1007.3 hPa | 0 mm | - | 62 W/m² | - |
| 1788615284 | 22.78° C | 99% | 1007.1 hPa | 0 mm | - | 78 W/m² | - |
| 1788614983 | 22.78° C | 99% | 1007.3 hPa | 0 mm | - | 60 W/m² | - |
| 1788614678 | 22.78° C | 99% | 1007.2 hPa | 0 mm | - | 49 W/m² | - |
| 1788614374 | 22.78° C | 99% | 1007.1 hPa | 0 mm | - | 56 W/m² | - |
| 1788614079 | 22.78° C | 99% | 1007.2 hPa | 0 mm | - | 51 W/m² | - |
| 1788613770 | 22.78° C | 99% | 1007.2 hPa | 0 mm | - | 44 W/m² | - |
| 1788613463 | 22.78° C | 99% | 1007.3 hPa | 0 mm | - | 57 W/m² | - |
| 1788613163 | 22.78° C | 99% | 1007.1 hPa | 0 mm | - | 82 W/m² | - |
| 1788612858 | 22.78° C | 99% | 1007 hPa | 0 mm | - | 78 W/m² | - |
| 1788612554 | 22.78° C | 99% | 1007.1 hPa | 0 mm | - | 70 W/m² | - |
| 1788612250 | 22.22° C | 99% | 1007.1 hPa | 0 mm | - | 67 W/m² | - |
| 1788611950 | 22.22° C | 99% | 1007.1 hPa | 0 mm | - | 65 W/m² | - |
| 1788611647 | 22.22° C | 99% | 1007.1 hPa | 0 mm | - | 64 W/m² | - |
* Rain latest hour (hover to see other rain measurements)
** Current wind speed in m/s (hover to see current wind gust speed)